Weather History for Carbondale, IL

Change the Weather History Date:

Saturday, December 1, 2012

  Actual Average Record
Temperature  
Mean Temperature 58 °F -  
Max Temperature 66 °F 50 °F 70 °F (1970)
Min Temperature 50 °F 31 °F 11 °F (1964)
Degree Days  
Heating Degree Days 7    
Growing Degree Days 8 (Base 50)    
Moisture  
Dew Point 47 °F    
Average Humidity 66    
Maximum Humidity 80    
Minimum Humidity 54    
Precipitation  
Precipitation 0.00 in - - ()
Sea Level Pressure  
Sea Level Pressure 30.11 in    
Wind  
Wind Speed 12 mph (South)    
Max Wind Speed 20 mph    
Max Gust Speed 30 mph    
Visibility 10 miles    
Events      
Averages and records for this station are not official NWS values.
T = Trace of Precipitation, MM = Missing Value Source: NWS Daily Summary

Daily Weather History Graph

Daily Weather History Graph

Search for Another Location

Airport:

Trip Planner

Search our weather history database for the weather conditions in past years. The results will help you decide how hot, cold, wet, or windy it might be!

Date:

Astronomy

Dec. 01, 2012 Rise Set
Actual Time 6:54 AM CST 4:38 PM CST
Civil Twilight 6:25 AM CST 5:07 PM CST
Nautical Twilight 5:52 AM CST 5:39 PM CST
Astronomical Twilight 5:20 AM CST 6:11 PM CST
Moon 7:27 PM CST 9:07 AM CST
Length of Visible Light 10h 42m
Length of Day
9h 44m
Waning Gibbous, 91% of the Moon is Illuminated
Dec 1
Waning Gibbous
Dec 6
Last Quarter
Dec 13
New
Dec 19
First Quarter
Dec 28
Full

Hourly Weather History & Observations

Time (CST) Temp. Dew Point Humidity Pressure Visibility Wind Dir Wind Speed Gust Speed Precip Events Conditions
12:00 AM 55.4 °F 48.2 °F 77% 30.15 in 10.0 mi SSW 10.4 mph - N/A   Mostly Cloudy
12:52 AM 55.9 °F 46.9 °F 72% 30.14 in 10.0 mi SSW 11.5 mph - N/A   Overcast
1:11 AM 55.4 °F 46.4 °F 72% 30.15 in 10.0 mi SSW 15.0 mph - N/A   Mostly Cloudy
1:52 AM 53.1 °F 46.0 °F 77% 30.16 in 10.0 mi SSW 8.1 mph - N/A   Clear
2:52 AM 52.0 °F 46.0 °F 80% 30.17 in 10.0 mi South 6.9 mph - N/A   Mostly Cloudy
3:52 AM 51.1 °F 45.0 °F 80% 30.17 in 10.0 mi South 5.8 mph - N/A   Partly Cloudy
4:52 AM 50.0 °F 44.1 °F 80% 30.16 in 10.0 mi South 4.6 mph - N/A   Partly Cloudy
5:52 AM 51.1 °F 45.0 °F 80% 30.17 in 10.0 mi South 8.1 mph - N/A   Overcast
6:52 AM 53.1 °F 45.0 °F 74% 30.17 in 10.0 mi South 8.1 mph - N/A   Overcast
7:52 AM 52.0 °F 44.1 °F 74% 30.17 in 10.0 mi SSE 6.9 mph - N/A   Overcast
8:52 AM 55.0 °F 45.0 °F 69% 30.17 in 10.0 mi South 9.2 mph - N/A   Overcast
9:52 AM 59.0 °F 45.0 °F 60% 30.17 in 10.0 mi South 13.8 mph - N/A   Mostly Cloudy
10:52 AM 63.0 °F 46.9 °F 56% 30.14 in 10.0 mi South 12.7 mph - N/A   Clear
11:52 AM 64.9 °F 48.9 °F 56% 30.12 in 10.0 mi South 13.8 mph - N/A   Clear
12:52 PM 66.0 °F 50.0 °F 56% 30.09 in 10.0 mi South 18.4 mph 29.9 mph N/A   Partly Cloudy
1:52 PM 64.9 °F 50.0 °F 58% 30.07 in 10.0 mi South 17.3 mph 21.9 mph N/A   Mostly Cloudy
2:52 PM 64.0 °F 50.0 °F 60% 30.07 in 10.0 mi South 19.6 mph - N/A   Mostly Cloudy
3:52 PM 62.1 °F 50.0 °F 65% 30.06 in 10.0 mi South 13.8 mph - N/A   Clear
4:52 PM 62.1 °F 48.9 °F 62% 30.06 in 10.0 mi SSE 12.7 mph - N/A   Scattered Clouds
5:52 PM 62.1 °F 48.9 °F 62% 30.04 in 10.0 mi South 13.8 mph - N/A   Clear
6:52 PM 63.0 °F 48.0 °F 58% 30.04 in 10.0 mi South 16.1 mph 25.3 mph N/A   Mostly Cloudy
7:52 PM 62.1 °F 46.9 °F 58% 30.03 in 10.0 mi South 15.0 mph 23.0 mph N/A   Partly Cloudy
8:52 PM 62.1 °F 46.0 °F 56% 30.03 in 10.0 mi South 19.6 mph 28.8 mph N/A   Partly Cloudy
9:52 PM 64.0 °F 46.9 °F 54% 30.06 in 10.0 mi South 13.8 mph 23.0 mph N/A   Overcast
10:52 PM 64.0 °F 48.0 °F 56% 30.07 in 10.0 mi South 17.3 mph 23.0 mph N/A   Overcast
11:52 PM 63.0 °F 48.0 °F 58% 30.06 in 10.0 mi SSW 19.6 mph 28.8 mph N/A   Overcast